sat.trackr.live / text

‹ back to catalog

INMARSAT 4-F2 (SOUTHPA*)

NORAD 28899 · 2005-044A

PAYLOAD ACTIVE UNKNOWN

§ Identity

Operator
Country
IM
Launch date
2005-11-08
Launch site
SEAL
Launch vehicle
Mass (kg)
RCS (m²)
4.47

Purposes: comms, nav

External: N2YO · Heavens-Above · Gunter

§ Orbital elements

Epoch: 2026-05-24T23:17:30.340320Z

Period
1,436.10 min
Inclination
5.0664°
Eccentricity
0.0003099
Mean motion
1.00271591 rev/d
Perigee alt
35,773.6 km
Apogee alt
35,799.7 km
Semi-major
42,164.8 km
B*
0.0000e+0
RAAN
43.7388°
Arg perigee
17.9205°
Mean anomaly
313.7656°
Rev number
7,528

§ Raw data

INMARSAT 4-F2 (SOUTHPA*)1 28899U 05044A   26144.97049005 -.00000264  00000+0  00000+0 0  99912 28899   5.0664  43.7388 0003099  17.9205 313.7656  1.00271591 75286

JSON: /api/v1/satellites/28899 · /tle

For live sub-satellite position, see the globe view (requires WebGL).

§ Visibility from observer

Set your observer location to see the next 7 days of passes ≥ 10°. The values pass through the URL so the page stays shareable.

No JS? Fill the form by hand. The geolocation button needs JavaScript.